Hourly Data Report for October 03, 2015

All times are specified in Local Standard Time (LST). Add 1 hour to adjust for Daylight Saving Time where and when it is observed.

CHARLOTTETOWN A
PRINCE EDWARD ISLAND

46°17'21.000" N
63°07'09.000" W
48.50 m
8300301
71706
YYG

Download Data

Hourly Data (October 2015)
Hourly Data Report for October 3, 2015
Temp Definition
°C
Dew Point Temp Definition
°C
Rel Hum Definition
%
Wind Dir Definition
10's deg

Wind Spd Definition
km/h
Visibility Definition
km
Stn Press Definition
kPa
Hmdx Definition


Wind Chill Definition


Weather Definition


TIME
00:00 Legend Double Dagger 9.4 8.5 94 2 24 24.1 102.12     LegendNANA
01:00 Legend Double Dagger 9.6 8.8 95 2 23 12.9 102.12     Rain Showers
02:00 Legend Double Dagger 9.6 9.2 97 3 22 12.9 102.13     Cloudy
03:00 Legend Double Dagger 9.5 9.1 97 4 16 4.8 102.15     Rain Showers,Fog
04:00 Legend Double Dagger 9.3 9.0 98 2 20 4.8 102.17     Rain Showers,Fog
05:00 Legend Double Dagger 9.5 8.9 96 2 20 8.1 102.19     Rain Showers,Fog
06:00 Legend Double Dagger 9.0 8.4 96 2 29 4.8 102.25     Rain Showers,Fog
07:00 Legend Double Dagger 8.7 8.0 95 2 26 3.2 102.34     Rain Showers,Fog
08:00 Legend Double Dagger 9.0 7.5 90 2 28 8.1 102.40     Rain Showers,Fog
09:00 Legend Double Dagger 9.1 7.1 87 2 32 12.9 102.42     Rain Showers
10:00 Legend Double Dagger 9.2 6.8 85 2 28 19.3 102.47     Rain Showers
11:00 Legend Double Dagger 9.6 6.3 80 2 36 19.3 102.49     Rain Showers
12:00 Legend Double Dagger 9.9 6.1 77 2 29 24.1 102.51     LegendNANA
13:00 Legend Double Dagger 9.8 5.4 74 3 40 24.1 102.55     LegendNANA
14:00 Legend Double Dagger 8.8 5.9 82 1 29 24.1 102.57     Cloudy
15:00 Legend Double Dagger 9.0 4.8 75 1 26 19.3 102.58     Rain Showers
16:00 Legend Double Dagger 9.6 3.6 66 1 36 24.1 102.59     LegendNANA
17:00 Legend Double Dagger 8.2 2.3 66 1 25 24.1 102.61     Mostly Cloudy
18:00 Legend Double Dagger 7.7 2.0 67 1 24 24.1 102.63     LegendNANA
19:00 Legend Double Dagger 7.0 2.3 72 2 24 24.1 102.62     LegendNANA
20:00 Legend Double Dagger 6.9 2.0 71 2 21 24.1 102.65     Mostly Cloudy
21:00 Legend Double Dagger 7.0 2.1 71 1 19 24.1 102.67     LegendNANA
22:00 Legend Double Dagger 6.8 1.9 71 2 22 24.1 102.65     LegendNANA
23:00 Legend Double Dagger 6.2 2.1 75 36 10 24.1 102.66     Mainly Clear

Notes on Data Quality.

Legend

  • E = Estimated
  • M = Missing
  • NA = Not Available
  • ‡ = Partner data that is not subject to review by the National Climate Archives
Date modified: